User: anonymous   Login
Location: Young's Pond
(41.2695°N, 72.7766°W)
Time: 01:16:41
(UTC-04:00)
Language:

Spot 4 - Orbit

View from above orbital plane
View from above orbital plane
View from above satellite
View from above satellite

Ground track
Ground track

The orbit data is extracted from the following two-line orbital elements,

1 25260U 98017A   18109.81308549  .00000041  00000-0  20765-4 0  9996
2 25260  98.3262 195.8109 0014052  54.9598 305.2915 14.53529163 46398
Epoch (UTC): 19 April 2018 19:30:50
Eccentricity: 0.0014052
inclination: 98.3262°
perigee height: 704 km
apogee height: 724 km
right ascension of ascending node: 195.8109°
argument of perigee: 54.9598°
revolutions per day: 14.53529163
mean anomaly at epoch: 305.2915°
orbit number at epoch: 4639

The dashed part of the orbit path shows where the satellite is in the earth's shadow,  

DLR